Regional Weather Roundup
Issued by NWS

Home | Current Version | Previous Version | Graphics & Text | Print | Product List | Glossary On
Versions: 1 2 3 4 5 6 7 8 9 10 11 12 13 14 15 16 17 18 19 20 21 22 23 24 25 26 27 28 29 30 31 32 33 34 35 36 37 38 39 40 41 42 43 44 45 46 47 48 49 50
000
ASUS44 KMEG 251610
RWRTN
TENNESSEE HOURLY STATE WEATHER ROUNDUP
NATIONAL WEATHER SERVICE MEMPHIS TN
1100 AM CDT MON MAY 25 2015

TNZ002-004-019-021-049-052-054-088>092-251700-
WEST TENNESSEE

CITY           SKY/WX    TMP DP  RH WIND       PRES   REMARKS
MEMPHIS INTL   CLOUDY    75  68  78 S7        30.09R
NWS MEMPHIS      N/A     74 N/A N/A MISG        N/A
JACKSON        CLOUDY    70  67  90 VRB5      30.11S
DYERSBURG      CLOUDY    72  57  60 S3        30.11R
PARIS          MOSUNNY   66  66 100 SE10      30.13R
LEXINGTON      CLOUDY    66  66 100 CALM      30.13S
$$

TNZ008-025-027-028-033-062-065-066-251700-
NORTH MIDDLE TENNESSEE

CITY           SKY/WX    TMP DP  RH WIND       PRES   REMARKS
NASHVILLE      LGT RAIN  68  66  93 S6        30.19S
CLARKSVILLE    LGT RAIN  68  66  93 S8        30.16R FOG
SMYRNA         LGT RAIN  68  66  93 S3        30.20F
COOKEVILLE     PTSUNNY   75  63  64 S8        30.21S
CROSSVILLE     CLOUDY    72  60  66 S10       30.27S
$$

TNZ061-075-076-078-094-096-097-251700-
SOUTH MIDDLE TENNESSEE

CITY           SKY/WX    TMP DP  RH WIND       PRES   REMARKS
FAYETTEVILLE   CLOUDY   N/A N/A N/A MISG      30.20R
TULLAHOMA      CLOUDY    72  63  73 SE7       30.22S
WINCHESTER     PTSUNNY   73  64  73 S17       30.21S
MCMINNVILLE    SUNNY     75  63  64 VRB6      30.22S
COLUMBIA       CLOUDY    68  66  94 SE3       30.16S
SHELBYVILLE    CLOUDY    72  68  88 CALM      30.20F
$$

TNZ017-018-042-046-047-251700-
NORTHEAST TENNESSEE

CITY           SKY/WX    TMP DP  RH WIND       PRES   REMARKS
TRI CITIES     MOSUNNY   79  54  41 S9        30.28F
ELIZABETHTON   SUNNY     79  52  38 W8        30.29F
$$

TNZ012-013-036-069-073-074-251700-
CENTRAL EAST TENNESSEE

CITY           SKY/WX    TMP DP  RH WIND       PRES   REMARKS
KNOXVILLE      MOSUNNY   80  56  43 S8        30.24F
OAK RIDGE      MOSUNNY   80  59  48 VRB6      30.26F
GATLINBURG     SUNNY     81  57  44 NE5       30.24F
MORRISTOWN     SUNNY     79  57  47 VRB3      30.27F
$$

TNZ083-085-099-251700-
SOUTHEAST TENNESSEE

CITY           SKY/WX    TMP DP  RH WIND       PRES   REMARKS
CHATTANOOGA    CLOUDY    76  62  62 S9G23     30.25S
$$

SKY/WX REPORTED AS FAIR MEANS FEW OR NO CLOUDS BELOW
12 THOUSAND FEET.



USA.gov is the U.S. government's official web portal to all federal, state and local government web resources and services.